This is the latest recevied weather packets stored in our database for station/object NB9X. If no packets are shown the sender has not sent any weather packets the latest 10 day(s).
| Time | Temp. | Humidity | Pressure | Rain* | Wind** | Luminosity | Snow |
|---|---|---|---|---|---|---|---|
| 1778174886 | 31.11° C | 100% | 1015.2 hPa | 0 mm | - | - | - |
| 1778174586 | 30° C | 100% | 1015.2 hPa | 0 mm | - | - | - |
| 1778174286 | 30.56° C | 100% | 1015.1 hPa | 0 mm | - | - | - |
| 1778174122 | 30.56° C | 100% | 1015.3 hPa | 0 mm | - | - | - |
| 1778173986 | 29.44° C | 100% | 1015.2 hPa | 0 mm | - | - | - |
| 1778173686 | 30° C | 100% | 1015.2 hPa | 0 mm | - | - | - |
| 1778173386 | 31.11° C | 100% | 1015.2 hPa | 0 mm | - | - | - |
| 1778173086 | 30.56° C | 100% | 1015.3 hPa | 0 mm | - | - | - |
| 1778172786 | 30.56° C | 100% | 1015.3 hPa | 0 mm | - | - | - |
| 1778172486 | 30° C | 100% | 1015.3 hPa | 0 mm | - | - | - |
| 1778172304 | 30° C | 100% | 1015.6 hPa | 0 mm | - | - | - |
| 1778172186 | 30° C | 100% | 1015.3 hPa | 0 mm | - | - | - |
| 1778172004 | 28.89° C | 100% | 1015.4 hPa | 0 mm | - | - | - |
| 1778171886 | 28.89° C | 100% | 1015.4 hPa | 0 mm | - | - | - |
| 1778171586 | 30° C | 100% | 1015.4 hPa | 0 mm | - | - | - |
| 1778171286 | 29.44° C | 100% | 1015.4 hPa | 0 mm | - | - | - |
| 1778170986 | 30° C | 100% | 1015.5 hPa | 0 mm | - | - | - |
| 1778170686 | 30° C | 100% | 1015.5 hPa | 0 mm | - | - | - |
| 1778170386 | 30° C | 100% | 1015.5 hPa | 0 mm | - | - | - |
| 1778170086 | 30° C | 100% | 1015.5 hPa | 0 mm | - | - | - |
| 1778169786 | 30° C | 100% | 1015.6 hPa | 0 mm | - | - | - |
| 1778169657 | 30° C | 100% | 1015.6 hPa | 0 mm | - | - | - |
| 1778169486 | 30° C | 100% | 1015.6 hPa | 0 mm | - | - | - |
| 1778169309 | 30° C | 100% | 1015.6 hPa | 0 mm | - | - | - |
| 1778169186 | 29.44° C | 100% | 1015.6 hPa | 0 mm | - | - | - |
* Rain latest hour (hover to see other rain measurements)
** Current wind speed in m/s (hover to see current wind gust speed)